Weather History for KWJF - November, 2012

Change the Weather History Date:

Friday, November 16, 2012

  Actual Average Record
Temperature  
Mean Temperature 56 °F 51 °F  
Max Temperature 67 °F 67 °F 84 °F (2007)
Min Temperature 45 °F 36 °F 21 °F (2000)
Degree Days  
Heating Degree Days 9    
Month to date heating degree days 190  
Since 1 July heating degree days 282  
Cooling Degree Days 0    
Month to date cooling degree days 0  
Year to date cooling degree days 2282  
Growing Degree Days 6 (Base 50)    
Moisture  
Dew Point 39 °F    
Average Humidity 53    
Maximum Humidity 71    
Minimum Humidity 34    
Precipitation  
Precipitation T in 0.02 in 0.68 in (1965)
Month to date precipitation T 0.26  
Year to date precipitation 1.74 5.95  
Since 1 July precipitation 0.04 1.04  
Snow  
Snow 0.00 in - 0.00 in ()
Month to date snowfall 0.0  
Since 1 July snowfall 0.0  
Since 1 September snowfall 0.0  
Snow Depth 0.00 in    
Sea Level Pressure  
Sea Level Pressure 30.07 in    
Wind  
Wind Speed 7 mph (WSW)    
Max Wind Speed 16 mph    
Max Gust Speed 21 mph    
Visibility 10 miles    
Events Rain    
T = Trace of Precipitation, MM = Missing Value Source: NWS Daily Summary

Daily Weather History Graph

Daily Weather History Graph

Search for Another Location

Airport or City:

Trip Planner

Search our weather history database for the weather conditions in past years. The results will help you decide how hot, cold, wet, or windy it might be!

Date:

Astronomy

Nov. 16, 2012 Rise Set
Actual Time 6:28 AM PST 4:46 PM PST
Civil Twilight 6:01 AM PST 5:13 PM PST
Nautical Twilight 5:30 AM PST 5:44 PM PST
Astronomical Twilight 5:00 AM PST 6:14 PM PST
Moon 9:25 AM PST (11/16) 7:53 PM PST (11/16)
Length of Visible Light 11h 12m
Length of Day
10h 18m
Waxing Crescent, 12% of the Moon is Illuminated
Nov 16
Waxing Crescent
Nov 20
First Quarter
Nov 28
Full
Dec 6
Last Quarter
Dec 13
New

Hourly Weather History & Observations

Time (PST) Temp. Windchill Dew Point Humidity Pressure Visibility Wind Dir Wind Speed Gust Speed Precip Events Conditions
12:56 AM 52.0 °F - 36.0 °F 54% 30.09 in 10.0 mi West 6.9 mph - 0.00 in   Overcast
1:56 AM 50.0 °F - 37.9 °F 63% 30.10 in 10.0 mi Calm Calm - 0.00 in Rain Light Rain
2:56 AM 50.0 °F - 35.1 °F 57% 30.07 in 10.0 mi SW 4.6 mph - 0.00 in   Scattered Clouds
3:56 AM 46.0 °F 43.1 °F 37.0 °F 71% 30.08 in 10.0 mi ESE 5.8 mph - N/A   Overcast
4:56 AM 46.9 °F - 37.9 °F 71% 30.08 in 10.0 mi Calm Calm - N/A   Overcast
5:56 AM 46.0 °F - 35.1 °F 66% 30.09 in 10.0 mi Calm Calm - N/A   Mostly Cloudy
6:56 AM 52.0 °F - 36.0 °F 54% 30.10 in 10.0 mi WSW 10.4 mph - N/A   Scattered Clouds
7:56 AM 51.1 °F - 39.0 °F 63% 30.12 in 10.0 mi North 4.6 mph - N/A   Overcast
8:56 AM 55.0 °F - 37.9 °F 53% 30.11 in 10.0 mi East 4.6 mph - N/A   Partly Cloudy
9:56 AM 60.1 °F - 39.0 °F 46% 30.11 in 10.0 mi Calm Calm - N/A   Scattered Clouds
10:56 AM 61.0 °F - 39.9 °F 46% 30.10 in 10.0 mi SE 3.5 mph - N/A   Overcast
11:56 AM 63.0 °F - 39.9 °F 43% 30.08 in 10.0 mi SW 13.8 mph - N/A   Mostly Cloudy
12:56 PM 64.0 °F - 37.0 °F 37% 30.05 in 10.0 mi South 6.9 mph - N/A   Mostly Cloudy
1:56 PM 66.0 °F - 37.9 °F 36% 30.03 in 10.0 mi WSW 10.4 mph - N/A   Scattered Clouds
2:56 PM 66.0 °F - 37.9 °F 36% 30.02 in 10.0 mi WSW 13.8 mph - N/A   Mostly Cloudy
3:56 PM 62.1 °F - 37.0 °F 39% 30.04 in 10.0 mi WSW 11.5 mph - N/A   Overcast
4:56 PM 59.0 °F - 37.9 °F 46% 30.04 in 10.0 mi WSW 15.0 mph - N/A   Overcast
5:56 PM 59.0 °F - 39.0 °F 48% 30.05 in 10.0 mi WSW 5.8 mph - N/A   Overcast
6:56 PM 57.9 °F - 41.0 °F 53% 30.05 in 10.0 mi WSW 12.7 mph - N/A   Overcast
7:56 PM 57.0 °F - 43.0 °F 59% 30.06 in 10.0 mi West 10.4 mph 19.6 mph N/A   Mostly Cloudy
8:56 PM 54.0 °F - 43.0 °F 66% 30.07 in 10.0 mi WNW 8.1 mph - N/A   Partly Cloudy
9:56 PM 53.1 °F - 43.0 °F 69% 30.07 in 10.0 mi NW 5.8 mph - N/A   Clear
10:56 PM 54.0 °F - 45.0 °F 72% 30.06 in 10.0 mi SW 8.1 mph - N/A   Mostly Cloudy
11:56 PM 52.0 °F - 44.1 °F 74% 30.06 in 10.0 mi West 11.5 mph - N/A   Clear